Starlink 32083

operational
NORAD ID: 60343 Int'l Des: 2024-136 Owner: SPXS Country: US Constellation: starlink
LEOCIRCULAR

About Starlink 32083

Description loading...

Live Position

Loading 3D Globe...

Upcoming Passes

Altitude History

Altitude vs Time

uPlot chart will show altitude changes over time

Two-Line Element Set

1 60343U 24136Q 25261.11853529 .00003223 00000-0 12093-3 0 9990
2 60343 53.1595 157.1668 0001390 97.2670 262.8489 15.30197088 63240
Epoch: Sep 18, 2025 • Age: 18 hours

Current Status

Altitude 480.2 km
Velocity 7.63 km/s
Sub-Earth Point 50.09°N, 87.35°W
Launch Date Aug 2, 2024
Age 1.1 years
Type internet

Technical Details

Classification Payload
Mass 730.00 kg
Dry Mass 700.00 kg
Total Mass 730.00 kg
Length 0.30 m
Diameter 4.10 m
Span 29.00 m
Shape Box + pan
Manufacturer SPXS
Bus Type Starlink V2M
Phase Status In Orbit
Owner/State SPXS/US

Large Constellations

Loading constellations...